Location: Columbia
(38.9520°N, 92.3340°W)
Time: 23:53:08
(UTC-06:00)

Cosmos 2219 Rocket - Visible Passes

Search period start: 21 January 2017 00:00
Search period end: 31 January 2017 00:00
Orbit: 829 x 846 km, 71.0° (Epoch: 21 January)

Date Brightness Start Highest point End Pass type
(mag) Time Alt. Az. Time Alt. Az. Time Alt. Az.
21 Jan 2.6 17:44:26 10° SSW 17:50:03 69° WNW 17:55:40 10° NNE visible
21 Jan 4.9 19:33:48 10° WNW 19:35:04 11° NW 19:36:19 10° NNW visible
22 Jan 4.8 19:16:46 10° WNW 19:18:38 12° NW 19:20:31 10° NNW visible
23 Jan 4.8 18:59:54 10° WNW 19:02:13 12° NW 19:04:32 10° NNW visible
24 Jan 4.7 18:43:07 10° WNW 18:45:47 13° NW 18:48:28 10° NNW visible
25 Jan 4.7 18:26:23 10° W 18:29:22 14° NW 18:32:22 10° NNW visible
26 Jan 4.6 18:09:41 10° W 18:12:57 15° NW 18:16:14 10° NNW visible
27 Jan 4.6 17:53:02 10° W 17:56:32 17° NW 18:00:04 10° NNW visible
